Regional Weather Roundup
Issued by NWS

Home | Current Version | Previous Version | Graphics & Text | Print | Product List | Glossary On
Versions: 1 2 3 4 5 6 7 8 9 10 11 12 13 14 15 16 17 18 19 20 21 22 23 24 25 26 27
000
ASUS45 KCYS 260110
RWRWY

WYOMING REGIONAL WEATHER ROUNDUP
NATIONAL WEATHER SERVICE CHEYENNE WY
700 PM MDT MON SEP 25 2017

NOTE:  "FAIR" INDICATES FEW OR NO CLOUDS BELOW 12,000 FEET
WITH NO SIGNIFICANT WEATHER AND/OR OBSTRUCTIONS TO VISIBILITY.

WYZ001-260200-
YELLOWSTONE NATIONAL PARK

CITY           SKY/WX    TMP DP  RH WIND       PRES   REMARKS
LK YELLOWSTONE NOT AVBL
W YELLOWSTONE  NOT AVBL

$$
WYZ002>013-054>058-071-098>099-260200-
NORTHERN WYOMING

CITY           SKY/WX    TMP DP  RH WIND       PRES   REMARKS
JACKSON        CLOUDY    42  28  57 W5        30.15R
CODY           CLOUDY    49  37  63 SE5       30.09S
GREYBULL       FAIR      50  41  71 SW3       30.07S
WORLAND        MOCLDY    51  41  68 CALM      30.07S
SHERIDAN       CLOUDY    48  42  80 S7        30.08S
BUFFALO        CLOUDY    45  38  76 NW3       30.10S
GILLETTE       FAIR      43  39  86 N5        30.08S
HULETT         CLOUDY    45  41  87 N3        30.10F
NEWCASTLE      MOCLDY    46  37  71 S7        30.08S

$$
WYZ014>020-022>026-101>103-260200-
CENTRAL WYOMING

CITY           SKY/WX    TMP DP  RH WIND       PRES   REMARKS
BIG PINEY      FAIR      41  28  60 N13       30.15S
PINEDALE       FAIR      41  28  60 NW13      30.15S
DUBOIS         CLOUDY    37  28  70 W14       30.12S WCI  29
LANDER         CLOUDY    46  37  71 W6        30.08R
RIVERTON       MOCLDY    48  36  63 CALM      30.09S
CASPER         MOCLDY    46  34  62 W7        30.08S
DOUGLAS        LGT RAIN  49  38  65 S3        30.08S

$$
WYZ021-027>030-104>119-260200-
SOUTHERN WYOMING

CITY           SKY/WX    TMP DP  RH WIND       PRES   REMARKS
EVANSTON       CLOUDY    44  30  57 N6        30.15S
FORT BRIDGER   FAIR      43  31  63 NW6       30.18S
ROCK SPRINGS   FAIR      43  30  60 W10       30.13S
DIXON          FAIR      47  31  54 W3        30.15S
RAWLINS        FAIR      43  31  62 W7        30.12S
SARATOGA       MOCLDY    43  30  61 W6        30.14R
LARAMIE        CLOUDY    44  32  62 N6        30.10R
CHEYENNE       LGT RAIN  41  37  86 N7        30.11R
TORRINGTON     MOCLDY    51  41  68 SW3       30.06R
PINE BLUFFS    FAIR      45  37  76 MISG      30.09S

$$




USA.gov is the U.S. government's official web portal to all federal, state and local government web resources and services.